Regional Weather Roundup
Issued by NWS Pendleton, OR

Home | Current Version | Previous Version | Text Only | Print | Product List | Glossary On
Versions: 1 2 3 4 5 6 7 8 9 10 11 12 13 14 15 16 17 18 19 20 21 22 23 24 25 26 27 28 29 30 31 32 33 34 35 36 37 38 39 40 41 42 43 44 45 46 47 48 49 50
000
ASUS46 KPDT 242025
RWRPDT
PENDLETON REGIONAL WEATHER ROUNDUP
NATIONAL WEATHER SERVICE PENDLETON OREGON
100 PM PDT THU JUL 24 2014

NOTE: FAIR INDICATES FEW OR NO CLOUDS BELOW 12,000 FEET WITH NO
SIGNIFICANT WEATHER AND/OR OBSTRUCTIONS TO VISIBILITY.

# INDICATES UNOFFICIAL STATION AND DATA

WAZ520-242110-
EAST SLOPES OF WASHINGTON CASCADES

CITY            SKY/WX      TMP DP  RH  WIND    PRES   REMARKS
#BUMPING DAM    N/A         52  N/A N/A S8      N/A
#CLE ELUM HS    N/A         57  49  75  NW7     30.11R
#CLE ELUM LAKE  N/A         52  50  93  NW3     30.13R
#CLIFFDEL 2NW   N/A         56  45  66  W5      N/A
#GLENWOOD       N/A         63  51  65  S5      30.16S
#MANASTASH CYN  N/A         65  49  56  SW1     30.11R
#NELSON         N/A         57  52  83  CALM    30.14R
#NELSON 3SW     N/A         55  51  86  CALM    30.34R
#RONALD 2NW     N/A         55  49  80  W2      30.04R
#TROUT LAKE 1NE N/A         61  51  70  W9      30.19S
$$

WAZ521-242110-
SIMCOE HIGHLANDS

CITY            SKY/WX      TMP DP  RH  WIND    PRES   REMARKS
#BICKLETON HS   N/A         60  39  46  W14     30.18F
#CENTERVILLE 1SWN/A         64  47  54  W22     30.14F
#GOLDENDALE 1NE N/A         63  41  44  SW7     N/A
#GOLDENDALE 1S  N/A         65  51  60  SW12    30.17S
#GOLDENDALE 5WNWN/A         64  49  58  W17     30.16F
#GOODNOE HILLS  N/A         70  47  44  W29     30.10F
#LYLE 6NE       N/A         62  50  65  SW9G24  30.17S
$$

WAZ026-242110-
KITTITAS VALLEY

CITY            SKY/WX      TMP DP  RH  WIND    PRES   REMARKS
ELLENSBURG AP   PTCLDY      71  50  47  NW17G25 30.13S
#ELLENSBURG CWU N/A         68  50  53  N15     30.06S
#ELLENSBURG 3NE N/A         65  52  63  N8      30.12F
#ELLENSBURG 1E  N/A         70  48  46  NW1     N/A
#KITTITAS 3S    N/A         67  52  59  N2      30.08S
#THORP 6N       N/A         60  49  67  N18G25  30.12S
$$

WAZ027-242110-
YAKIMA VALLEY

CITY            SKY/WX      TMP DP  RH  WIND    PRES   REMARKS
YAKIMA AIRPORT  MOSUNNY     76  43  31  W13G25  30.11S
#COWICHE 1N     N/A         67  45  45  SW9     30.24S
#DONALD 2NE     N/A         67  43  42  SW1     30.30S
#GRANDVIEW      N/A         72  44  37  W3      30.12F
#MABTON         N/A         72  47  41  W7      30.12S
#MOXEE 2E       N/A         73  26  17  SW7     29.99F
#NACHES 2SW     N/A         70  51  51  W7      30.13R
#OUTLOOK DOT    N/A         N/A N/A N/A W8      N/A
#SELAH 8E       N/A         71  43  36  W12     N/A
#TERRACE HTS    N/A         77  46  33  NW7     30.06S
#TOPPENISH      N/A         72  46  39  SW7     30.01F
#WAPATO 4NE     N/A         67  43  42  SW1     30.30S
#W YAKIMA       N/A         71  46  41  W6      30.09R
#WHITE SWAN 5E  N/A         75  50  41  SW20G30 30.09S
#WILEY CITY 3W  N/A         71  43  36  CALM    30.11F
$$

WAZ028-242110-
LOWER COLUMBIA BASIN...WASHINGTON

CITY            SKY/WX      TMP DP  RH  WIND    PRES   REMARKS
HANFORD         CLOUDY      76  40  27  W13     30.11S
PASCO           SUNNY       76  46  34  SW20G28 30.14F
PROSSER AWOS    N/A         73  48  41  W13     30.15S
RICHLAND AWOS   PTCLDY      75  43  32  S16G24  30.12F
#BASIN CITY 5SW N/A         75  49  40  CALM    30.11F
#BENTON CITY    N/A         72  48  43  W7      30.01S
#CONNELL 5N     N/A         73  48  41  SW13    30.10F
#CONNELL 5NW    N/A         70  48  46  SW12G24 30.07S
#ELTOPIA 6NW    N/A         70  48  46  S10     29.10S
#KENNEWICK 3S   N/A         71  47  42  S10     30.12F
#PASCO-BROADMOORN/A         76  47  36  SW7     30.01F
#PATERSON       N/A         72  49  44  SW18G28 30.12F
#PROSSER        N/A         72  42  34  W7      30.11S
#SAGEMOOR 2W    N/A         71  52  51  S7      29.96F
#TOUCHET 2S     N/A         73  49  43  W8      30.13S
#WEST PASCO     N/A         75  52  45  SW7     30.12F
$$

WAZ029-242110-
FOOTHILLS OF THE BLUES...WASHINGTON

CITY            SKY/WX      TMP DP  RH  WIND    PRES   REMARKS
WALLA WALLA AP  LGT RAIN    74  41  30  SW16G30 30.18S
#COLLEGE PLACE  N/A         77  41  28  SW5     30.16S
#DAYTON SCHOOL  N/A         66  37  34  S7      30.15S
#LOWDEN 2SE     N/A         73  48  41  W14     30.11F
#PLEASANT VIEW 1N/A         68  44  42  SW17G26 30.16S
#PRESCOTT       N/A         72  48  43  W7      30.12F
#SUDBURY        N/A         73  N/A N/A W6      N/A
#WHITMAN COLLEGEN/A         71  44  38  S8      30.18F
#WAITSBURG 8N   N/A         69  31  24  S18     30.00S
#WALLA WALLA 5E N/A         72  45  38  S15     N/A
#WALLA WALLA U  N/A         72  46  39  W2      30.13F
#WHITMAN MISSIONN/A         72  48  43  W12     30.15F
$$

WAZ030-242110-
BLUE MOUNTAINS...WASHINGTON

CITY            SKY/WX      TMP DP  RH  WIND    PRES   REMARKS
$$

ORZ009-041-WAZ024-242110-
COLUMBIA RIVER GORGE

CITY            SKY/WX      TMP DP  RH  WIND    PRES   REMARKS
HOOD RIVER AP   SUNNY       68  54  61  NW16    30.22S
THE DALLES AP   PTCLDY      73  51  46  NW14    30.20S
#ARLINGTON AIRPON/A         70  48  46  W23     N/A
#ARLINGTON HS   N/A         73  47  40  W2      30.06F
#CELILO DOT     N/A         73  47  40  CALM    N/A
#MOSIER 1S      N/A         68  45  44  W10     30.27S
#MURDOCK        N/A         70  55  59  N18     30.21F
#RUFUS DOT      N/A         71  47  42  SW7     N/A

$$

ORZ510-242110-
NORTH CENTRAL OREGON

CITY            SKY/WX      TMP DP  RH  WIND    PRES   REMARKS
#CHENOWITH 1W   N/A         61  51  70  NW24    N/A
#COW CYN RST AREN/A         65  42  43  SW9     N/A
#DUFUR 9E       N/A         60  49  67  NW12    30.25S
#GRASS VALLEY 1SN/A         66  48  52  NW2     30.20S
#KENT DOT       N/A         64  36  35  W13     N/A
#MAUPIN SCHOOL  N/A         70  46  42  SW7     30.22F
#MORO SCHOOL    N/A         65  53  65  W9      30.21F
#SHANIKO 5WSW   N/A         60  34  37  W12     N/A
#SHANIKO 4NW    N/A         58  41  53  W14     30.25R
#TYGH VALLEY 2NEN/A         70  48  46  S1      30.16S
#WAPANITIA AIRPON/A         66  46  48  W7      30.20S
#WASCO DOT      N/A         69  43  39  W20     N/A
#WASCO AIRPORT  N/A         69  45  42  W15     N/A
#WASCO 5NE      N/A         68  47  47  W12G26  30.17F
$$

ORZ511-242110-
CENTRAL OREGON

CITY            SKY/WX      TMP DP  RH  WIND    PRES   REMARKS
BEND AIRPORT    SUNNY       64  36  35  N8      30.25F
MADRAS AIRPORT  PTCLDY      66  39  37  N6      30.25F
REDMOND AIRPORT SUNNY       68  38  33  NW12    30.24S
#BEND 6E        N/A         64  34  33  CALM    30.11F
#BEND 1SW       N/A         64  39  40  CALM    N/A
#BEND-AWBREY    N/A         67  42  40  E1      30.19F
#BEND-KIM LN    N/A         68  41  37  NW1     30.22F
#CROOKED RVR RANN/A         68  44  42  W1      30.19F
#CULVER         N/A         65  42  43  NE2     30.20F
#LAKE BILLY CHINN/A         64  -4   6  NW3     30.22F
#POWELL BUTTE 3EN/A         62  41  46  N3      N/A
#POWELL BUTTE   N/A         69  48  47  NW2     29.87F
#PRINEVILLE 3N  N/A         64  44  48  CALM    30.16F


ORZ509-242110-
EAST SLOPES OF OREGON CASCADES

CITY            SKY/WX      TMP DP  RH  WIND    PRES   REMARKS
#BLUE BOX PASS  N/A         50  -1  12  NW5     N/A
#BLACK BUTTE RNCN/A         62  46  56  CALM    30.21F
#CAMP SHERMAN   N/A         65  44  46  CALM    30.21F
#LA PINE DOT    N/A         66  31  27  SW3     N/A
#LA PINE 4NW    N/A         60  41  49  CALM    30.25F
#LAVA BUTTE DOT N/A         64  35  34  E1      N/A
#SISTERS AIRPOR N/A         61  47  60  VRB13G2430.22F
#SISTERS ODOT   N/A         61  N/A N/A SW6     N/A
#SISTERS 1NW    N/A         61  42  50  N22     N/A
#SISTERS 3N     N/A         61  32  33  W3      30.25F
#SUNRIVER       N/A         65  40  40  SW2     30.08F
#SUNRIVER AP    N/A         65  40  40  CALM    30.17F
#SUTTLE LK DOT  N/A         57  45  64  CALM    N/A
#TUMALO 3W      N/A         63  42  46  NE7     30.09F
#WANOGA BUTTE D N/A         54  38  55  NE2     N/A

$$

ORZ044-242110-
LOWER COLUMBIA BASIN...OREGON

CITY            SKY/WX      TMP DP  RH  WIND    PRES   REMARKS
HERMISTON       SUNNY       76  43  31  W14G24  30.15F
#BOARDMAN SCHOOLN/A         73  47  40  W14G25  30.14S
#BOARDMAN 3W    N/A         75  50  41  SW15    29.85S
#BOARDMAN 8SW   N/A         72  49  44  W17     30.15F
#IONE SCHOOL    N/A         70  45  41  W9      30.16F
#IRRIGON 4NW    N/A         75  48  38  SW16G31 N/A
#UMATILLA SCHOOLN/A         74  55  51  S15G24  30.16F
#UMATILLA       N/A         74  47  38  SW15G30 30.12F
$$

ORZ507-242110-
NORTHERN FOOTHILLS OF THE BLUES

CITY            SKY/WX      TMP DP  RH  WIND    PRES   REMARKS
PENDLETON AIRPT PTCLDY      72  40  31  W23G31  30.17F
#ADAMS 3WNW     N/A         68  45  44  W15G24  30.14F
#ATHENA         N/A         67  42  40  W9      30.17S
#HELIX SCHOOL   N/A         67  43  42  W12G24  30.14F
#HELIX 3N       N/A         68  43  40  W15G24  30.14F
#HOLDMAN 5SE    N/A         70  45  41  W14G26  30.17F
#HOLDMAN 6E     N/A         68  45  44  NW7     29.96F
#M-F FERNDALE   N/A         74  49  41  CALM    30.16F
#M-F GROVE ELEM N/A         71  36  28  W9      30.15F
#M-FREEWATER 5SEN/A         69  46  44  SW7     30.16F
#PDT AQUATIC CTRN/A         72  44  37  W10     30.12S
#PENDLETON 5NE  N/A         72  46  39  CALM    30.13F
#PDT SUNRIDGE   N/A         72  45  38  W7      30.18F
#PENDLETON 7NW  N/A         71  49  46  W15G24  30.10R
#PILOT ROCK     N/A         70  45  41  W6      30.19F
#TUTUILLA       N/A         73  45  37  W13     30.08F
#UMAPINE 2E     N/A         72  51  48  SW8     30.13F
#WESTON SCHOOL  N/A         66  38  36  N7      30.16S

$$

ORZ508-242110-
SOUTHERN FOOTHILLS OF THE BLUES

CITY            SKY/WX      TMP DP  RH  WIND    PRES   REMARKS
#AJAX           N/A         N/A N/A N/A W13     30.23S
#CONDON SCHOOL  N/A         62  44  52  SW13    30.17F
#CONDON 5W      N/A         61  41  48  W16G25  30.20F
#HEPPNER EOC    N/A         67  41  39  SW8     30.12S
#HEPPNER 4NE    N/A         64  41  43  W14     30.16F
#LEXINGTON 2SE  N/A         72  43  35  SW7     30.15F
#MIKKALO        N/A         69  43  39  NW13    30.19S
#OLEX 4N        N/A         68  45  44  W14G24  30.17
#RUGGS 5NE      N/A         66  42  42  SW15    30.40S
#RUGGS 2SW      N/A         65  41  41  W12     30.22F

$$

ORZ502-503-242110-
BLUE MOUNTAINS

CITY            SKY/WX      TMP DP  RH  WIND    PRES   REMARKS
MEACHAM         CLOUDY      60  40  47  VRB6    30.23F
#BATTLE MTN DOT N/A         57  41  55  CALM    N/A
#HARDMAN 10S    N/A         57  40  53  CALM    30.27S
#HEPPNER 15SE   N/A         61  41  48  W5      30.16S
#LADD CYN SMT   N/A         65  33  30  NW7     N/A
#LADD CREEK ODOTN/A         65  41  41  NE14    N/A
#LONG CREEK HS  N/A         62  41  46  N7      30.18F
#PIKES PEAK     N/A         56  40  55  SW17G32 27.99S
#TOLLGATE 9W    N/A         58  42  55  W5      N/A
#TROY SCHOOL    N/A         69  42  37  W6      29.95F
#UKIAH          N/A         64  40  41  SE5     30.19S
#WESTON 4E      N/A         61  41  48  W7      30.11S
$$

ORZ505-242110-
JOHN DAY BASIN

CITY            SKY/WX      TMP DP  RH  WIND    PRES   REMARKS
JOHN DAY        SUNNY       66  35  32  SE5     30.23F
#JOHN DAY KJDY  N/A         71  36  28  NW1     30.16S
#MONUMENT HS    N/A         68  37  32  NW8     30.04S
#MT. VERNON 5SE N/A         63  34  34  W3      30.20F
#WINLOCK        N/A         68  43  40  N7      30.30S
$$

ORZ506-242110-
OCHOCO AND JOHN DAY HIGHLANDS

CITY            SKY/WX      TMP DP  RH  WIND    PRES   REMARKS
#BUCK CREEK DOT N/A         65  37  35  NW2     N/A
#HORSE RIDGE DO N/A         62  33  34  N8      N/A
#KEYES SMT DOT  N/A         59  38  45  N6      N/A
#PAULINA SCHOOL N/A         N/A N/A N/A S2      30.21F
#PINE MTN OBS   N/A         54  34  47  N6      N/A
#PRAIRIE CITY   N/A         67  37  33  S1      30.13F
#SENECA 9NW     N/A         63  36  36  CALM    30.10F
$$

ORZ049-242110-
GRANDE RONDE VALLEY

CITY            SKY/WX      TMP DP  RH  WIND    PRES   REMARKS
LA GRANDE       SUNNY       68  36  31  N6      30.19F
#COVE           N/A         66  43  43  NW5     30.11F
#COVE SCHOOL    N/A         67  38  34  NW1     30.18F
#COVE 6NW       N/A         64  39  40  CALM    30.18S
#ELGIN 3N       N/A         66  38  36  S5      29.92S
#ELGIN 1E       N/A         65  42  43  CALM    N/A
#IMBLER SCHOOL  N/A         65  43  45  CALM    30.15F
#ISLAND CITY 4N N/A         67  43  42  S3      30.08F
#LADD CYN DOT   N/A         67  39  36  N10     N/A
#UNION 1S       N/A         66  39  37  CALM    30.05S
$$

ORZ050-242110-
WALLOWA COUNTY

CITY            SKY/WX      TMP DP  RH  WIND    PRES   REMARKS
JOSEPH AIRPORT  SUNNY       64  36  35  NW6     30.22F
#ENTERPRISE HS  N/A         64  41  43  SW1     30.18F
#IMNAHA SCHOOL  N/A         72  32  23  E1      30.06F
#IMNAHA 10S     N/A         72  39  30  SE2     30.13F
#JOSEPH 3N      N/A         61  39  44  CALM    30.21F
#JOSEPH 3W      N/A         61  36  39  CALM    30.04F
#LOSTINE        N/A         66  38  36  N1      29.88F
#MT HOWARD 8000 N/A         44  39  82  E6      30.33R
#PROMISE 1S     N/A         57  41  55  SE8     30.25F
#SHEEP RDG 7000 N/A         46  35  65  CALM    30.13R
#WALLOWA SCHOOL N/A         66  38  36  NW5     30.99F



$$



USA.gov is the U.S. government's official web portal to all federal, state and local government web resources and services.